Weather History for KNEW - August, 2013

Change the Weather History Date:

Monday, August 5, 2013

  Actual Average Record
Temperature  
Mean Temperature 87 °F 83 °F  
Max Temperature 95 °F 92 °F 100 °F (1990)
Min Temperature 78 °F 75 °F 67 °F (1974)
Degree Days  
Heating Degree Days 0 0  
Month to date heating degree days 0 0  
Since 1 June heating degree days 0 0  
Since 1 July heating degree days 0 0  
Cooling Degree Days 22 18  
Month to date cooling degree days 105 90  
Year to date cooling degree days 1685 1770  
Since 1 June cooling degree days 1192 1151  
Growing Degree Days 38 (Base 50)    
Moisture  
Dew Point 77 °F    
Average Humidity 72    
Maximum Humidity 91    
Minimum Humidity 52    
Precipitation  
Precipitation 0.00 in 0.20 in 1.40 in (1976)
Month to date precipitation T 0.99  
Year to date precipitation 43.09 39.22  
Snow  
Snow 0.00 in - - ()
Month to date snowfall 0.0  
Since 1 June snowfall 0.0  
Since 1 July snowfall 0.0  
Snow Depth 0.00 in    
Sea Level Pressure  
Sea Level Pressure 30.00 in    
Wind  
Wind Speed 7 mph (WNW)    
Max Wind Speed 14 mph    
Max Gust Speed 17 mph    
Visibility 10 miles    
Events      
T = Trace of Precipitation, MM = Missing Value Source: NWS Daily Summary

Daily Weather History Graph

Daily Weather History Graph

Search for Another Location

Airport or City:

Trip Planner

Search our weather history database for the weather conditions in past years. The results will help you decide how hot, cold, wet, or windy it might be!

Date:

Astronomy

Aug. 05, 2013 Rise Set
Actual Time 6:21 AM CDT 7:50 PM CDT
Civil Twilight 5:55 AM CDT 8:15 PM CDT
Nautical Twilight 5:25 AM CDT 8:46 PM CDT
Astronomical Twilight 4:53 AM CDT 9:18 PM CDT
Moon 5:15 AM CDT (8/5) 6:53 PM CDT (8/5)
Length of Visible Light 14h 19m
Length of Day
13h 28m
Waning Crescent, 1% of the Moon is Illuminated
Aug 5
Waning Crescent
Aug 6
New
Aug 14
First Quarter
Aug 20
Full
Aug 28
Last Quarter

Hourly Weather History & Observations

Time (CDT) Temp. Heat Index Dew Point Humidity Pressure Visibility Wind Dir Wind Speed Gust Speed Precip Events Conditions
12:53 AM 86.0 °F 98.3 °F 78.1 °F 77% 30.03 in 10.0 mi West 11.5 mph - N/A   Clear
1:53 AM 86.0 °F 98.3 °F 78.1 °F 77% 30.02 in 10.0 mi West 9.2 mph - N/A   Mostly Cloudy
2:53 AM 84.9 °F 95.3 °F 77.0 °F 77% 30.00 in 10.0 mi NNW 9.2 mph - N/A   Scattered Clouds
3:53 AM 84.9 °F 94.1 °F 75.9 °F 74% 30.00 in 10.0 mi NW 8.1 mph - N/A   Clear
4:53 AM 84.9 °F 95.3 °F 77.0 °F 77% 30.00 in 10.0 mi WNW 9.2 mph - N/A   Clear
5:53 AM 84.0 °F 93.7 °F 77.0 °F 79% 30.01 in 10.0 mi NW 11.5 mph - N/A   Clear
6:53 AM 84.9 °F 95.3 °F 77.0 °F 77% 30.03 in 10.0 mi WNW 13.8 mph - N/A   Clear
7:53 AM 84.9 °F 96.6 °F 78.1 °F 80% 30.04 in 10.0 mi WNW 12.7 mph - N/A   Partly Cloudy
8:53 AM 86.0 °F 98.3 °F 78.1 °F 77% 30.05 in 10.0 mi NW 15.0 mph - N/A   Scattered Clouds
9:53 AM 87.1 °F 101.5 °F 79.0 °F 77% 30.06 in 10.0 mi WNW 13.8 mph - N/A   Clear
10:53 AM 87.1 °F 101.5 °F 79.0 °F 77% 30.06 in 10.0 mi WNW 10.4 mph - N/A   Scattered Clouds
11:23 AM 89.6 °F 104.7 °F 78.8 °F 70% 30.07 in 10.0 mi WNW 10.4 mph - N/A   Partly Cloudy
11:53 AM 89.1 °F 103.2 °F 78.1 °F 70% 30.04 in 10.0 mi WNW 11.5 mph - N/A   Clear
12:53 PM 90.0 °F 102.5 °F 77.0 °F 65% 30.03 in 10.0 mi NW 11.5 mph - N/A   Clear
1:53 PM 91.9 °F 103.9 °F 75.9 °F 59% 30.01 in 10.0 mi NW 9.2 mph - N/A   Clear
2:53 PM 93.0 °F 105.3 °F 75.9 °F 57% 29.98 in 10.0 mi WNW 9.2 mph - N/A   Clear
3:53 PM 93.0 °F 104.6 °F 75.0 °F 56% 29.95 in 10.0 mi WNW 9.2 mph - N/A   Clear
4:53 PM 93.9 °F 106.9 °F 75.9 °F 56% 29.96 in 10.0 mi NW 10.4 mph - N/A   Clear
5:53 PM 93.9 °F 105.4 °F 75.0 °F 54% 29.94 in 10.0 mi NNW 8.1 mph - N/A   Clear
6:53 PM 90.0 °F 100.2 °F 75.0 °F 61% 29.96 in 10.0 mi South 8.1 mph - N/A   Clear
7:53 PM 89.1 °F 99.1 °F 75.0 °F 63% 29.96 in 10.0 mi SSW 6.9 mph - N/A   Clear
8:53 PM 89.1 °F 99.1 °F 75.0 °F 63% 29.96 in 10.0 mi SW 9.2 mph - N/A   Clear
9:53 PM 88.0 °F 101.3 °F 78.1 °F 72% 29.98 in 10.0 mi WSW 11.5 mph - N/A   Clear
10:53 PM 86.0 °F 96.9 °F 77.0 °F 74% 29.99 in 9.0 mi Calm Calm - N/A   Mostly Cloudy
11:53 PM 86.0 °F 96.9 °F 77.0 °F 74% 29.96 in 10.0 mi SW 9.2 mph - N/A   Clear